sat.trackr.live / text

‹ back to catalog

FLOCK 4H-29

NORAD 66732 · 2025-276BU

PAYLOAD ACTIVE UNKNOWN

§ Identity

Operator
Country
US
Launch date
2025-11-28
Launch site
AFWTR
Launch vehicle
Mass (kg)
RCS (m²)

Purposes: earth_obs

External: N2YO · Heavens-Above · Gunter

§ Orbital elements

Epoch: 2026-05-25T04:16:01.646112Z

Period
94.77 min
Inclination
97.4176°
Eccentricity
0.0005001
Mean motion
15.19422903 rev/d
Perigee alt
504.1 km
Apogee alt
511.0 km
Semi-major
6,885.7 km
B*
2.5667e-4
RAAN
218.9857°
Arg perigee
102.8641°
Mean anomaly
257.3153°
Rev number
2,692

§ Raw data

FLOCK 4H-291 66732U 25276BU  26145.17779683  .00005371  00000+0  25667-3 0  99962 66732  97.4176 218.9857 0005001 102.8641 257.3153 15.19422903 26929

JSON: /api/v1/satellites/66732 · /tle

For live sub-satellite position, see the globe view (requires WebGL).

§ Visibility from observer

Set your observer location to see the next 7 days of passes ≥ 10°. The values pass through the URL so the page stays shareable.

No JS? Fill the form by hand. The geolocation button needs JavaScript.